Weather History for PASX - April, 2014

Change the Weather History Date:

Saturday, April 26, 2014

  Actual Average Record
Temperature  
Mean Temperature 42 °F -  
Max Temperature 50 °F 47 °F 62 °F (2005)
Min Temperature 33 °F 31 °F 14 °F (1955)
Degree Days  
Heating Degree Days 24    
Moisture  
Dew Point 28 °F    
Average Humidity 58    
Maximum Humidity 75    
Minimum Humidity 43    
Precipitation  
Precipitation 0.00 in - - ()
Sea Level Pressure  
Sea Level Pressure 29.33 in    
Wind  
Wind Speed 8 mph (NE)    
Max Wind Speed 17 mph    
Max Gust Speed 28 mph    
Visibility 10 miles    
Events      
Averages and records for this station are not official NWS values.
T = Trace of Precipitation, MM = Missing Value Source: NWS Daily Summary

Daily Weather History Graph

Daily Weather History Graph

Search for Another Location

Airport or City:

Trip Planner

Search our weather history database for the weather conditions in past years. The results will help you decide how hot, cold, wet, or windy it might be!

Date:

Astronomy

Apr. 26, 2014 Rise Set
Actual Time 6:12 AM AKDT 9:52 PM AKDT
Civil Twilight 5:21 AM AKDT 10:44 PM AKDT
Nautical Twilight 4:04 AM AKDT 12:03 AM AKDT
Astronomical Twilight 2:34 AM AKDT 1:29 AM AKDT
Moon 5:29 AM AKDT (4/26) 6:54 PM AKDT (4/26)
Length of Visible Light 17h 23m
Length of Day
15h 39m
Waning Crescent, 7% of the Moon is Illuminated
Apr 26
Waning Crescent
Apr 28
New
May 6
First Quarter
May 14
Full
May 21
Last Quarter

Hourly Weather History & Observations

Time (AKDT) Temp. Windchill Dew Point Humidity Pressure Visibility Wind Dir Wind Speed Gust Speed Precip Events Conditions
12:16 AM 39.2 °F 33.6 °F 26.6 °F 61% 29.39 in 10.0 mi ENE 8.1 mph - N/A   Clear
12:36 AM 39.2 °F 34.2 °F 24.8 °F 56% 29.39 in 10.0 mi East 6.9 mph - N/A   Clear
12:56 AM 37.4 °F 32.8 °F 24.8 °F 60% 29.39 in 10.0 mi ENE 5.8 mph - N/A   Clear
1:16 AM 37.4 °F 33.8 °F 24.8 °F 60% 29.39 in 10.0 mi ESE 4.6 mph - N/A   Clear
1:36 AM 37.4 °F 32.8 °F 24.8 °F 60% 29.39 in 10.0 mi ESE 5.8 mph - N/A   Clear
1:56 AM 37.4 °F - 24.8 °F 60% 29.39 in 10.0 mi Calm Calm - N/A   Clear
2:16 AM 37.4 °F 34.9 °F 24.8 °F 60% 29.38 in 10.0 mi ESE 3.5 mph - N/A   Clear
2:36 AM 35.6 °F 31.7 °F 24.8 °F 65% 29.38 in 10.0 mi East 4.6 mph - N/A   Clear
2:56 AM 37.4 °F 32.8 °F 26.6 °F 65% 29.38 in 10.0 mi NE 5.8 mph - N/A   Clear
3:16 AM 37.4 °F 30.3 °F 26.6 °F 65% 29.38 in 10.0 mi NE 10.4 mph - N/A   Clear
3:36 AM 37.4 °F 33.8 °F 26.6 °F 65% 29.38 in 10.0 mi ENE 4.6 mph - N/A   Clear
3:56 AM 37.4 °F 32.8 °F 26.6 °F 65% 29.37 in 10.0 mi ENE 5.8 mph - N/A   Clear
4:16 AM 37.4 °F 34.9 °F 26.6 °F 65% 29.37 in 10.0 mi ESE 3.5 mph - N/A   Clear
4:36 AM 35.6 °F 32.8 °F 26.6 °F 70% 29.37 in 10.0 mi SSE 3.5 mph - N/A   Clear
4:56 AM 33.8 °F - 24.8 °F 70% 29.36 in 10.0 mi Calm Calm - N/A   Clear
5:16 AM 33.8 °F - 26.6 °F 75% 29.36 in 10.0 mi Calm Calm - N/A   Partly Cloudy
5:36 AM 35.6 °F - 24.8 °F 65% 29.36 in 10.0 mi Calm Calm - N/A   Scattered Clouds
5:56 AM 35.6 °F - 26.6 °F 70% 29.35 in 10.0 mi Calm Calm - N/A   Partly Cloudy
6:16 AM 33.8 °F - 24.8 °F 70% 29.35 in 10.0 mi Calm Calm - N/A   Partly Cloudy
6:36 AM 37.4 °F 30.8 °F 26.6 °F 65% 29.34 in 10.0 mi NE 9.2 mph - N/A   Mostly Cloudy
6:56 AM 39.2 °F 33.6 °F 26.6 °F 61% 29.34 in 10.0 mi NE 8.1 mph - N/A   Overcast
7:16 AM 39.2 °F 33.6 °F 26.6 °F 61% 29.34 in 10.0 mi NE 8.1 mph - N/A   Overcast
7:36 AM 39.2 °F 33.0 °F 28.4 °F 65% 29.34 in 10.0 mi NE 9.2 mph - N/A   Overcast
7:56 AM 39.2 °F 33.6 °F 28.4 °F 65% 29.33 in 10.0 mi NE 8.1 mph - N/A   Overcast
8:16 AM 39.2 °F 32.5 °F 28.4 °F 65% 29.33 in 10.0 mi ENE 10.4 mph - N/A   Overcast
8:36 AM 39.2 °F 32.0 °F 28.4 °F 65% 29.33 in 10.0 mi NE 11.5 mph - N/A   Scattered Clouds
8:56 AM 39.2 °F 32.5 °F 28.4 °F 65% 29.33 in 10.0 mi NE 10.4 mph - N/A   Mostly Cloudy
9:16 AM 39.2 °F 32.5 °F 28.4 °F 65% 29.33 in 10.0 mi NE 10.4 mph - N/A   Partly Cloudy
9:36 AM 39.2 °F 32.5 °F 28.4 °F 65% 29.33 in 10.0 mi NE 10.4 mph - N/A   Clear
9:56 AM 41.0 °F 35.2 °F 28.4 °F 61% 29.32 in 10.0 mi NE 9.2 mph 16.1 mph N/A   Scattered Clouds
10:16 AM 41.0 °F 33.9 °F 28.4 °F 61% 29.32 in 10.0 mi NE 12.7 mph 17.3 mph N/A   Mostly Cloudy
10:36 AM 41.0 °F 34.3 °F 30.2 °F 65% 29.32 in 10.0 mi NE 11.5 mph - N/A   Partly Cloudy
10:56 AM 42.8 °F 36.6 °F 30.2 °F 61% 29.33 in 10.0 mi NE 11.5 mph 19.6 mph N/A   Clear
11:16 AM 42.8 °F 37.0 °F 30.2 °F 61% 29.32 in 10.0 mi NE 10.4 mph - N/A   Clear
11:36 AM 42.8 °F 36.2 °F 30.2 °F 61% 29.33 in 10.0 mi NE 12.7 mph 17.3 mph N/A   Clear
11:56 AM 42.8 °F 36.2 °F 30.2 °F 61% 29.32 in 10.0 mi NE 12.7 mph 19.6 mph N/A   Partly Cloudy
12:16 PM 44.6 °F 38.1 °F 30.2 °F 57% 29.32 in 10.0 mi NE 13.8 mph 19.6 mph N/A   Partly Cloudy
12:36 PM 44.6 °F 39.7 °F 30.2 °F 57% 29.32 in 10.0 mi North 9.2 mph - N/A   Clear
12:56 PM 44.6 °F 38.8 °F 30.2 °F 57% 29.32 in 10.0 mi NNE 11.5 mph 17.3 mph N/A   Partly Cloudy
1:16 PM 44.6 °F 38.1 °F 30.2 °F 57% 29.32 in 10.0 mi NE 13.8 mph 19.6 mph N/A   Partly Cloudy
1:36 PM 46.4 °F 40.7 °F 28.4 °F 50% 29.32 in 10.0 mi NE 12.7 mph 23.0 mph N/A   Clear
1:56 PM 46.4 °F 42.4 °F 28.4 °F 50% 29.32 in 10.0 mi NNE 8.1 mph 20.7 mph N/A   Partly Cloudy
2:16 PM 46.4 °F 40.4 °F 28.4 °F 50% 29.31 in 10.0 mi North 13.8 mph 23.0 mph N/A   Partly Cloudy
2:36 PM 46.4 °F 40.4 °F 30.2 °F 53% 29.31 in 10.0 mi NNE 13.8 mph 25.3 mph N/A   Mostly Cloudy
2:56 PM 46.4 °F 39.8 °F 28.4 °F 50% 29.32 in 10.0 mi North 16.1 mph 23.0 mph N/A   Overcast
3:16 PM 46.4 °F 40.7 °F 30.2 °F 53% 29.31 in 10.0 mi NNE 12.7 mph 18.4 mph N/A   Overcast
3:36 PM 48.2 °F - 30.2 °F 50% 29.30 in 10.0 mi NE 12.7 mph 19.6 mph N/A   Overcast
3:56 PM 48.2 °F - 28.4 °F 46% 29.30 in 10.0 mi NE 13.8 mph 18.4 mph N/A   Overcast
4:16 PM 50.0 °F - 28.4 °F 43% 29.30 in 10.0 mi NE 10.4 mph 23.0 mph N/A   Overcast
4:36 PM 48.2 °F - 30.2 °F 50% 29.30 in 10.0 mi NE 17.3 mph 20.7 mph N/A   Overcast
4:56 PM 48.2 °F - 28.4 °F 46% 29.29 in 10.0 mi NE 17.3 mph 21.9 mph N/A   Overcast
5:16 PM 48.2 °F - 28.4 °F 46% 29.29 in 10.0 mi NE 12.7 mph 21.9 mph N/A   Overcast
5:36 PM 48.2 °F - 28.4 °F 46% 29.29 in 10.0 mi NNE 13.8 mph 23.0 mph N/A   Overcast
5:56 PM 48.2 °F - 28.4 °F 46% 29.29 in 10.0 mi NE 16.1 mph 27.6 mph N/A   Overcast
6:16 PM 48.2 °F - 28.4 °F 46% 29.29 in 10.0 mi NNE 13.8 mph 24.2 mph N/A   Overcast
6:36 PM 48.2 °F - 28.4 °F 46% 29.30 in 10.0 mi NE 13.8 mph 20.7 mph N/A   Overcast
6:56 PM 48.2 °F - 28.4 °F 46% 29.30 in 10.0 mi NNE 13.8 mph 23.0 mph N/A   Overcast
7:16 PM 48.2 °F - 28.4 °F 46% 29.30 in 10.0 mi NE 15.0 mph 25.3 mph N/A   Overcast
7:36 PM 46.4 °F 40.7 °F 28.4 °F 50% 29.29 in 10.0 mi NE 12.7 mph 19.6 mph N/A   Overcast
7:56 PM 46.4 °F 41.1 °F 28.4 °F 50% 29.30 in 10.0 mi NE 11.5 mph - N/A   Overcast
8:16 PM 46.4 °F 41.5 °F 28.4 °F 50% 29.30 in 10.0 mi NE 10.4 mph 17.3 mph N/A   Mostly Cloudy
8:36 PM 44.6 °F 39.2 °F 28.4 °F 53% 29.30 in 10.0 mi NE 10.4 mph - N/A   Mostly Cloudy
8:56 PM 44.6 °F 39.2 °F 28.4 °F 53% 29.31 in 10.0 mi NE 10.4 mph - N/A   Mostly Cloudy
9:16 PM 44.6 °F 40.2 °F 28.4 °F 53% 29.31 in 10.0 mi NE 8.1 mph - N/A   Mostly Cloudy
9:36 PM 44.6 °F 40.2 °F 28.4 °F 53% 29.32 in 10.0 mi NNE 8.1 mph - N/A   Overcast
9:56 PM 44.6 °F 39.7 °F 28.4 °F 53% 29.32 in 10.0 mi NE 9.2 mph - N/A   Overcast
10:16 PM 44.6 °F 41.4 °F 28.4 °F 53% 29.32 in 10.0 mi NE 5.8 mph - N/A   Overcast
10:36 PM 44.6 °F 39.7 °F 28.4 °F 53% 29.32 in 10.0 mi NE 9.2 mph 17.3 mph N/A   Overcast
10:56 PM 42.8 °F 37.0 °F 28.4 °F 57% 29.32 in 10.0 mi NE 10.4 mph - N/A   Mostly Cloudy
11:16 PM 42.8 °F 36.6 °F 28.4 °F 57% 29.33 in 10.0 mi ENE 11.5 mph - N/A   Clear
11:36 PM 42.8 °F 37.0 °F 28.4 °F 57% 29.33 in 10.0 mi NE 10.4 mph - N/A   Clear
11:56 PM 42.8 °F 38.0 °F 28.4 °F 57% 29.33 in 10.0 mi NE 8.1 mph - N/A   Clear